Temp
76 69 65 72 75 76 72 70 66 65 70 67 69 73 76 81 77 73 76 79 81 80 83 83 82 83 82 83 82 81 80 81 80 77 76 76 75 76 76 76 76 75 75 74
70 64 75 78 76 73 71 68 67 69 68 66 64 67 75 78 76 74 75 77 79 81 82 81 80 80 81 81 82 81 80 80 79 78 79 79 79 78 77 75 74 74 73 73
67 71 75 72 70 69 69 67 66 64 65 65 64 62 72 72 74 74 75 75 78 80 80 80 79 79 79 79 79 80 81 79 79 79 78 76 76 73 72 72 72 73 73 72
71 71 70 69 68 70 64 71 66 66 61 56 67 55 68 71 71 73 74 74 74 76 80 80 78 77 78 78 80 80 80 81 79 78 75 73 71 70 74 74 74 73 73 72
66 67 66 64 68 72 66 70 68 66 64 63 63 57 67 69 67 69 70 70 71 74 77 78 78 78 79 79 78 79 79 79 79 78 74 72 71 73 74 73 71 71 72 72
69 73 71 68 66 69 70 67 66 65 64 53 64 59 64 65 64 66 69 69 70 71 75 78 79 79 78 78 76 75 76 77 77 75 75 72 69 70 70 70 69 69 70 69
66 66 67 71 64 67 67 64 55 53 51 53 61 58 64 65 64 64 66 67 69 71 72 74 74 73 73 73 72 73 73 73 75 75 73 73 70 69 68 68 68 67 66 66
59 53 64 67 66 65 64 65 58 47 52 57 59 55 61 65 67 68 69 69 70 70 71 71 72 73 74 73 74 74 73 73 74 74 73 72 70 67 68 67 66 65 65 65
62 55 64 65 67 66 62 58 64 59 61 54 61 62 64 66 66 67 67 67 66 68 69 70 71 72 72 72 72 72 72 72 71 71 71 71 70 68 66 65 66 64 65 64
66 55 62 61 66 65 63 66 56 59 48 47 57 58 60 60 62 65 65 65 66 68 69 69 69 69 71 70 70 71 70 69 69 69 69 68 68 67 66 65 64 63 63 62
66 64 56 61 60 61 59 60 60 59 58 51 50 56 67 65 65 65 65 66 66 67 68 69 69 70 69 70 69 69 69 68 68 67 67 66 66 66 65 64 63 63 62 62
64 64 56 58 61 63 63 63 63 55 53 57 54 54 67 68 67 67 65 65 65 66 66 67 68 69 70 69 69 68 67 66 66 65 64 64 64 64 63 63 63 63 61 61
64 61 53 52 57 60 58 62 63 61 58 52 50 54 66 65 64 66 65 65 65 65 66 67 68 68 68 68 68 67 67 66 65 64 63 63 62 62 61 61 61 61 60 59
59 61 58 53 54 62 56 58 60 60 53 56 57 58 59 61 62 63 64 65 66 64 63 65 65 66 67 67 67 67 66 66 64 62 61 60 60 60 59 59 58 58 58 57
61 57 59 58 58 57 58 58 58 56 59 54 59 56 63 64 64 66 66 65 64 63 63 63 62 63 64 65 65 65 64 63 62 60 60 59 60 59 58 57 56 57 56 56
60 56 57 55 56 55 53 57 58 58 58 58 58 56 67 68 67 64 63 63 62 63 62 61 61 62 62 62 62 62 62 61 61 60 59 58 57 56 55 55 55 54 54 54
59 57 54 52 54 54 51 57 58 58 59 58 53 58 62 59 60 62 63 61 61 60 59 59 60 60 60 60 60 59 60 61 59 58 57 57 56 55 54 54 53 52 52 53
57 57 55 50 52 42 53 59 60 58 59 60 59 58 59 60 62 64 63 61 60 58 58 59 60 59 60 60 59 59 59 58 57 56 56 56 55 53 53 52 51 51 51 50
59 59 51 46 48 56 54 54 55 54 56 62 60 59 59 60 60 60 62 60 58 58 59 59 60 59 59 58 58 57 56 56 55 55 55 54 53 51 51 49 49 50 49 46
55 58 54 49 39 38 54 57 60 59 50 60 61 59 59 58 52 53 59 59 58 59 59 58 58 59 59 59 58 55 54 54 54 54 53 53 52 51 50 49 49 50 47 45
51 51 47 48 43 52 59 59 60 47 51 60 62 61 59 55 56 57 58 58 58 58 58 58 58 57 58 58 57 53 53 53 55 54 53 52 52 51 51 50 50 48 45 45
50 47 46 50 43 40 60 56 52 57 59 60 60 60 57 57 55 55 55 56 56 55 56 57 56 56 58 58 56 53 52 55 54 52 51 51 52 51 51 50 48 46 44 42
48 58 55 53 53 59 61 59 59 60 59 59 59 58 58 55 54 54 54 55 56 56 56 57 56 55 56 58 57 53 53 54 52 51 50 51 51 51 51 47 44 43 42 40
57 58 53 52 61 59 60 63 60 59 59 60 60 57 57 55 55 54 55 55 55 56 55 56 55 54 54 56 56 54 54 53 51 49 50 49 49 49 49 45 44 42 39 38
58 56 56 56 61 58 59 61 63 59 59 58 58 57 56 55 54 55 55 55 56 56 56 56 54 54 54 55 55 55 54 52 49 49 49 48 49 47 43 42 42 39 40 40
59 59 54 55 63 63 61 62 62 57 55 57 56 55 56 56 54 55 55 56 56 55 56 55 54 54 54 54 54 53 53 51 48 47 47 47 46 42 40 40 41 44 42 43
MSLP
1006.78 1006.53 1005.73 1005.68 1005.82 1005.69 1006.13 1006.53 1007.41 1008.61 1009.55 1009.59 1008.80 1007.88 1007.41 1007.31 1008.00 1008.52 1008.53 1008.49 1008.64 1009.36 1010.25 1011.34 1012.48 1013.15 1013.80 1014.32 1014.86 1015.51 1016.01 1016.39 1016.87 1017.29 1017.55 1017.82 1017.93 1018.14 1018.43 1018.68 1018.85 1019.08 1019.24 1019.35
1006.71 1005.85 1005.34 1005.47 1005.67 1006.16 1006.66 1006.83 1007.50 1008.52 1009.69 1009.77 1009.21 1008.36 1007.42 1007.26 1007.98 1008.60 1008.77 1008.66 1008.65 1009.07 1010.03 1011.28 1012.47 1013.25 1013.89 1014.40 1014.81 1015.34 1015.96 1016.45 1016.89 1017.30 1017.34 1017.34 1017.46 1017.75 1017.99 1018.51 1018.89 1019.13 1019.25 1019.26
1005.58 1005.47 1005.65 1005.76 1006.47 1006.64 1006.88 1007.17 1007.56 1008.54 1009.28 1009.66 1009.72 1008.21 1006.85 1007.99 1008.56 1009.03 1009.23 1009.42 1009.22 1008.97 1009.84 1010.94 1012.22 1013.18 1013.91 1014.37 1014.91 1015.33 1015.83 1016.46 1016.87 1017.19 1017.42 1017.77 1017.85 1018.34 1018.50 1018.65 1018.85 1018.91 1019.08 1019.20
1005.73 1006.50 1006.38 1006.64 1006.71 1007.09 1006.88 1007.51 1008.31 1008.52 1008.98 1008.90 1008.98 1007.55 1006.82 1007.32 1008.16 1008.71 1009.32 1009.72 1009.67 1009.76 1010.01 1010.84 1012.03 1013.08 1013.84 1014.43 1014.95 1015.47 1015.85 1016.14 1016.76 1017.23 1017.54 1017.73 1017.78 1017.79 1017.54 1017.80 1018.22 1018.56 1018.78 1018.94
1005.98 1006.56 1006.91 1007.23 1007.05 1007.49 1007.42 1008.10 1008.15 1008.47 1008.45 1008.48 1008.31 1008.25 1006.53 1007.79 1008.18 1009.09 1010.03 1010.37 1010.47 1010.53 1010.49 1011.03 1012.04 1012.99 1013.76 1014.51 1015.05 1015.56 1015.82 1016.15 1016.53 1016.97 1017.50 1017.70 1017.70 1017.66 1017.69 1017.92 1018.23 1018.43 1018.40 1018.54
1006.70 1007.31 1007.43 1007.74 1008.58 1008.41 1008.58 1008.50 1008.61 1008.66 1008.37 1007.90 1006.90 1007.85 1006.68 1007.91 1009.21 1010.02 1010.61 1010.99 1011.18 1011.37 1011.28 1011.39 1012.34 1013.05 1013.87 1014.54 1015.20 1015.78 1015.99 1016.11 1016.52 1016.99 1017.28 1017.62 1017.86 1017.75 1017.68 1017.75 1017.97 1018.13 1018.17 1018.36
1007.12 1007.59 1008.52 1008.61 1008.82 1009.06 1008.69 1008.15 1007.66 1007.69 1007.67 1006.93 1007.77 1008.13 1007.47 1009.27 1010.45 1010.98 1011.19 1011.61 1011.91 1012.08 1012.27 1012.44 1013.13 1013.82 1014.39 1015.00 1015.59 1015.96 1016.19 1016.32 1016.56 1016.79 1017.18 1017.42 1017.75 1018.02 1017.98 1017.96 1018.01 1018.17 1018.28 1018.30
1006.54 1008.06 1008.63 1008.99 1008.58 1008.13 1008.40 1008.09 1007.29 1006.65 1006.28 1006.37 1008.01 1007.67 1008.36 1010.10 1010.86 1011.38 1011.78 1012.16 1012.43 1012.70 1013.09 1013.39 1013.75 1014.18 1014.57 1015.10 1015.47 1015.78 1016.10 1016.29 1016.46 1016.54 1016.96 1017.40 1017.86 1018.18 1018.14 1018.24 1018.37 1018.43 1018.36 1018.27
1006.19 1008.07 1009.44 1009.47 1009.34 1009.22 1008.87 1008.82 1008.69 1007.68 1007.34 1007.24 1006.73 1007.71 1009.30 1010.24 1010.91 1011.45 1012.05 1012.67 1013.16 1013.50 1013.85 1014.15 1014.50 1014.75 1015.07 1015.42 1015.77 1016.03 1016.18 1016.38 1016.66 1017.03 1017.25 1017.44 1017.69 1017.96 1018.16 1018.34 1018.32 1018.26 1018.19 1018.07
1007.23 1008.01 1009.39 1010.01 1009.90 1009.85 1009.41 1009.35 1008.84 1008.31 1007.25 1006.55 1006.10 1006.93 1007.51 1009.74 1010.77 1011.63 1012.31 1013.07 1013.66 1013.95 1014.27 1014.62 1015.02 1015.40 1015.69 1016.10 1016.37 1016.54 1016.66 1016.76 1017.04 1017.27 1017.42 1017.63 1017.77 1017.90 1018.03 1018.09 1018.05 1018.03 1017.98 1017.88
1008.23 1007.85 1009.87 1010.12 1009.65 1008.98 1009.83 1009.24 1009.04 1008.74 1008.09 1007.31 1006.89 1007.29 1008.27 1009.22 1010.61 1011.62 1012.60 1013.37 1013.89 1014.32 1014.65 1014.93 1015.28 1015.64 1016.01 1016.24 1016.49 1016.67 1016.81 1016.97 1017.15 1017.44 1017.62 1017.76 1017.79 1017.84 1017.93 1017.93 1017.84 1017.67 1017.51 1017.40
1009.25 1008.52 1008.80 1009.39 1010.12 1010.26 1009.76 1008.91 1008.68 1008.39 1008.14 1008.15 1008.35 1008.76 1009.51 1010.01 1011.18 1011.95 1012.83 1013.66 1014.23 1014.71 1015.06 1015.36 1015.57 1015.70 1015.87 1016.11 1016.37 1016.73 1016.99 1017.20 1017.39 1017.74 1017.87 1017.81 1017.83 1017.88 1017.79 1017.61 1017.46 1017.34 1017.12 1016.96
1009.86 1009.03 1008.86 1009.71 1010.37 1010.37 1009.83 1009.39 1009.33 1009.18 1009.29 1008.71 1008.67 1009.06 1010.17 1011.10 1011.67 1012.29 1012.88 1013.62 1014.32 1014.85 1015.28 1015.52 1015.61 1015.81 1016.01 1016.15 1016.35 1016.62 1016.83 1017.10 1017.60 1017.90 1017.86 1017.74 1017.69 1017.69 1017.55 1017.47 1017.31 1017.15 1016.92 1016.63
1010.94 1009.46 1008.76 1008.63 1009.10 1008.90 1009.39 1009.52 1009.83 1009.66 1009.15 1008.61 1008.62 1009.03 1010.39 1011.06 1011.65 1012.42 1013.09 1013.83 1014.39 1015.05 1015.55 1015.73 1016.07 1016.20 1016.26 1016.33 1016.34 1016.52 1016.71 1017.00 1017.38 1017.74 1017.91 1017.83 1017.71 1017.57 1017.51 1017.31 1017.14 1016.91 1016.64 1016.27
1011.01 1009.64 1009.51 1009.55 1009.78 1009.89 1009.79 1009.82 1010.01 1009.85 1009.45 1009.19 1008.94 1009.71 1009.80 1010.68 1011.42 1012.15 1013.10 1013.88 1014.47 1015.02 1015.50 1016.12 1016.53 1016.73 1016.78 1016.75 1016.78 1016.88 1017.01 1017.17 1017.52 1017.71 1017.62 1017.48 1017.49 1017.50 1017.36 1017.20 1016.96 1016.60 1016.21 1015.84
1011.22 1010.35 1010.22 1009.83 1010.30 1010.49 1010.37 1010.20 1010.12 1010.03 1009.99 1009.95 1010.04 1010.18 1010.42 1010.79 1011.77 1012.53 1013.50 1014.19 1014.87 1015.34 1016.10 1016.70 1016.86 1016.96 1017.02 1017.13 1017.11 1017.25 1017.18 1017.42 1017.43 1017.42 1017.33 1017.36 1017.42 1017.30 1017.18 1017.06 1016.78 1016.29 1015.78 1015.30
1011.03 1010.72 1010.52 1009.93 1010.71 1010.65 1010.21 1009.70 1009.81 1010.10 1010.36 1010.45 1010.48 1011.03 1011.45 1012.12 1012.61 1013.21 1013.73 1014.69 1015.20 1015.99 1016.79 1017.03 1017.23 1017.31 1017.34 1017.34 1017.32 1017.43 1017.42 1017.42 1017.54 1017.46 1017.43 1017.26 1017.05 1017.02 1016.98 1016.68 1016.34 1015.89 1015.34 1014.81
1011.29 1011.06 1011.18 1010.78 1010.98 1010.55 1010.53 1010.69 1010.47 1010.45 1010.70 1010.95 1011.35 1011.97 1012.45 1012.80 1013.31 1013.77 1014.51 1015.09 1015.83 1016.72 1017.20 1017.32 1017.45 1017.40 1017.48 1017.50 1017.60 1017.57 1017.68 1017.62 1017.43 1017.39 1017.27 1017.06 1016.92 1016.80 1016.63 1016.32 1015.99 1015.55 1014.98 1014.49
1012.09 1011.52 1011.47 1011.44 1010.85 1010.08 1010.64 1011.28 1011.32 1011.22 1010.77 1011.07 1011.57 1012.34 1012.98 1013.57 1014.07 1014.23 1015.15 1016.22 1016.69 1017.19 1017.48 1017.60 1017.54 1017.56 1017.40 1017.48 1017.65 1017.77 1017.77 1017.67 1017.38 1017.27 1017.10 1017.11 1016.96 1016.63 1016.31 1015.94 1015.58 1015.12 1014.68 1014.76
1012.53 1012.27 1011.86 1011.82 1011.70 1010.94 1010.79 1011.57 1011.92 1011.95 1011.43 1011.60 1011.89 1012.51 1013.22 1014.12 1014.21 1015.02 1016.05 1016.67 1017.06 1017.36 1017.63 1017.69 1017.68 1017.57 1017.36 1017.34 1017.55 1017.80 1017.66 1017.42 1017.22 1017.11 1017.22 1017.14 1016.86 1016.47 1015.97 1015.58 1015.18 1014.69 1014.69 1014.43
1012.10 1012.16 1011.95 1011.78 1011.82 1010.98 1011.13 1011.91 1012.29 1012.19 1012.25 1012.23 1012.50 1012.90 1013.62 1014.38 1015.07 1015.96 1016.69 1017.03 1017.35 1017.67 1017.78 1017.87 1017.74 1017.46 1017.34 1017.44 1017.54 1017.57 1017.45 1017.09 1017.03 1017.19 1017.10 1016.88 1016.51 1016.03 1015.58 1015.18 1014.63 1014.54 1014.40 1013.93
1011.21 1011.47 1011.55 1011.54 1011.76 1011.47 1011.63 1012.38 1012.35 1012.40 1012.61 1012.80 1013.21 1013.62 1014.30 1015.08 1016.07 1016.66 1017.09 1017.36 1017.53 1017.66 1017.65 1017.67 1017.54 1017.38 1017.29 1017.33 1017.32 1017.24 1017.09 1017.02 1017.10 1017.09 1016.87 1016.44 1015.95 1015.58 1015.12 1014.58 1014.37 1014.29 1013.98 1013.52
1011.09 1010.69 1010.74 1011.08 1010.92 1011.33 1011.77 1011.96 1012.55 1012.86 1012.93 1013.31 1013.69 1014.40 1014.95 1015.88 1016.39 1016.81 1016.98 1017.19 1017.42 1017.54 1017.59 1017.48 1017.40 1017.27 1017.15 1016.90 1016.90 1016.86 1016.92 1016.95 1016.99 1016.82 1016.42 1015.94 1015.62 1015.14 1014.67 1014.59 1014.50 1014.06 1013.76 1013.32
1010.92 1011.37 1011.27 1011.25 1010.27 1011.16 1011.74 1012.00 1012.81 1013.23 1013.41 1013.80 1014.22 1015.13 1015.65 1015.87 1016.39 1016.86 1017.10 1017.20 1017.29 1017.37 1017.35 1017.36 1017.22 1017.00 1016.80 1016.65 1016.68 1016.67 1016.67 1016.80 1016.82 1016.46 1016.03 1015.74 1015.27 1014.83 1014.65 1014.91 1014.53 1014.03 1013.68 1013.09
1010.91 1011.25 1010.72 1010.46 1010.36 1011.27 1011.59 1011.92 1012.28 1013.39 1013.89 1014.39 1014.98 1015.48 1015.90 1016.39 1016.76 1017.01 1017.20 1017.30 1017.31 1017.23 1017.11 1017.01 1016.99 1016.81 1016.60 1016.41 1016.37 1016.33 1016.49 1016.67 1016.56 1016.24 1015.89 1015.50 1015.13 1014.98 1014.99 1014.85 1014.22 1013.93 1013.60 1012.88
1010.45 1009.86 1010.00 1009.48 1009.74 1010.16 1010.92 1011.68 1012.52 1013.43 1014.28 1014.87 1015.36 1015.90 1016.28 1016.59 1016.93 1017.04 1016.94 1016.98 1017.04 1016.95 1016.89 1016.75 1016.66 1016.55 1016.40 1016.26 1016.14 1016.18 1016.37 1016.49 1016.44 1016.16 1015.75 1015.40 1015.18 1015.35 1015.08 1014.38 1013.68 1013.47 1013.19 1012.41
Wind_Speed
14 13 15 19 16 15 6 10 13 3 3 5 12 13 11 8 10 9 11 12 12 13 13 12 12 12 11 10 10 11 10 10 7 5 5 5 5 5 3 3 3 3 2 2
10 14 16 14 17 13 10 11 11 4 3 2 14 20 15 5 4 5 8 11 13 13 13 15 14 13 12 11 10 10 10 9 7 5 5 4 4 4 4 3 4 4 4 4
14 7 3 6 8 12 12 12 9 7 4 7 14 15 16 7 5 2 1 5 10 12 14 15 15 14 12 11 10 10 10 10 8 7 4 3 1 2 3 5 5 6 5 5
15 7 6 9 14 12 14 6 4 6 4 7 5 8 8 8 5 2 6 6 3 7 11 13 14 13 13 11 9 10 9 10 9 8 6 8 7 7 6 2 3 4 6 6
7 8 10 10 3 10 4 6 5 5 8 6 12 6 1 5 5 6 9 8 6 2 8 12 13 13 12 10 9 9 9 9 9 8 9 7 8 7 5 5 6 7 7 8
10 6 3 4 4 5 9 8 6 4 6 9 11 7 3 4 6 5 7 9 8 4 5 8 9 9 9 8 7 7 10 10 9 9 10 9 10 10 8 7 6 6 6 6
11 7 5 8 10 5 7 7 5 7 6 4 4 5 6 7 5 5 6 9 9 8 6 6 8 5 5 6 8 8 9 9 10 10 9 10 8 9 9 8 6 8 7 7
11 8 8 3 4 4 10 7 8 7 6 2 5 6 7 7 6 8 8 9 10 10 8 6 4 4 5 5 6 7 8 8 9 7 7 6 6 5 5 6 6 7 7 8
8 7 5 4 1 4 7 7 5 7 7 8 8 8 7 7 8 8 9 10 9 10 10 10 9 7 6 6 6 4 4 4 4 5 5 6 5 6 6 8 8 7 10 9
3 6 1 4 2 3 4 2 4 5 5 8 6 4 5 11 9 9 10 10 9 9 10 9 9 8 7 7 6 5 4 1 2 3 4 4 6 7 7 8 10 11 11 12
3 3 5 4 8 4 6 6 5 5 4 6 7 5 7 10 10 8 9 8 8 8 7 7 7 6 6 5 4 3 2 3 3 3 5 6 7 8 9 9 10 12 12 14
3 5 6 4 4 2 4 4 6 6 6 4 4 1 1 9 7 7 8 7 6 6 6 5 4 4 4 5 5 5 5 5 4 5 6 8 8 9 10 11 13 13 14 14
1 4 5 6 5 4 5 8 7 4 2 9 7 4 5 6 7 7 8 8 6 5 3 3 4 6 7 8 7 7 7 6 6 7 8 9 9 10 11 13 13 14 15 15
5 3 6 5 6 3 5 8 9 10 6 8 9 5 9 8 8 8 6 6 6 4 1 4 6 8 9 9 9 9 8 8 5 6 8 10 11 11 12 13 13 14 15 16
5 4 2 2 2 2 4 5 9 13 13 10 8 5 5 3 7 7 6 6 5 4 1 5 7 9 10 10 10 10 9 5 6 7 10 11 11 12 13 13 14 14 15 15
2 1 1 3 1 4 8 9 10 11 13 13 12 14 8 4 2 5 6 6 5 4 5 8 9 10 10 11 10 9 5 6 6 10 11 11 12 13 13 14 15 15 16 16
4 2 2 1 0 5 11 11 13 8 7 8 10 4 5 4 5 6 5 5 3 3 6 8 10 9 9 9 7 7 7 8 10 11 11 12 12 13 14 15 16 15 16 16
3 3 1 3 3 5 5 5 5 7 3 8 3 2 2 2 4 3 3 3 2 5 7 8 8 9 8 7 6 7 8 10 10 11 12 12 13 14 14 15 16 16 15 15
4 2 2 3 5 8 8 3 3 4 1 7 7 4 5 4 3 8 6 5 4 4 6 7 8 8 7 6 6 7 9 10 10 12 12 13 13 15 15 15 16 15 14 14
1 4 5 2 2 4 5 5 3 2 4 2 7 8 8 6 5 8 5 3 4 5 6 7 9 8 8 7 7 9 10 11 11 11 12 13 14 15 16 15 15 13 13 13
4 4 8 6 5 6 9 8 5 4 4 6 4 4 6 6 4 6 2 3 4 6 8 8 9 9 9 8 8 10 11 11 11 11 12 13 14 15 15 14 13 13 12 14
7 6 5 5 5 6 10 7 5 5 3 4 3 3 4 3 4 3 2 4 6 7 9 9 9 9 10 9 9 10 12 11 10 11 13 14 14 12 12 13 13 14 12 11
5 4 2 6 2 3 11 5 5 1 3 4 5 5 4 5 3 1 2 4 5 7 8 9 9 10 10 10 9 11 11 10 11 12 13 14 14 13 13 13 14 11 11 10
5 2 3 2 4 8 6 9 5 4 2 3 4 7 5 5 3 1 3 5 6 7 8 8 10 11 12 11 10 10 10 10 11 12 13 13 13 13 12 10 9 9 9 9
4 8 5 8 11 5 10 9 8 6 4 7 7 7 6 4 2 3 5 6 7 8 9 9 10 11 12 11 11 10 9 9 10 12 12 12 10 12 11 11 9 8 9 11
8 8 6 5 5 5 5 4 9 9 9 9 8 7 5 3 2 4 6 7 9 10 11 11 11 12 13 12 11 9 8 8 10 11 10 10 10 9 9 10 10 14 18 21
Wind_Direction
197 208 207 202 217 232 272 224 227 219 53 281 270 278 285 256 198 243 261 254 227 210 195 187 183 180 174 175 176 172 174 170 162 179 175 190 204 195 202 194 212 219 301 268
171 219 211 218 215 227 239 226 213 189 137 284 319 287 281 331 314 319 295 259 244 209 205 183 185 186 181 184 187 181 181 182 177 198 203 218 208 215 213 190 220 239 243 271
200 168 126 176 193 211 215 243 220 232 143 195 263 264 244 157 159 143 339 288 281 231 206 184 187 190 188 191 190 197 191 189 200 209 215 240 275 307 241 233 230 225 240 266
237 123 163 187 217 230 233 167 251 195 203 248 217 288 222 157 167 110 21 15 320 249 215 186 189 192 193 199 191 210 207 202 210 207 229 231 238 247 248 283 257 260 248 266
128 158 168 206 226 190 218 158 183 204 244 294 231 253 153 164 183 37 25 23 34 285 219 193 183 190 196 191 200 211 222 221 217 231 221 252 252 270 267 274 263 257 260 260
106 72 127 76 99 260 142 141 164 214 254 245 249 220 193 112 29 4 35 44 48 82 180 182 162 174 187 189 200 212 232 232 233 230 247 238 263 265 268 263 260 269 280 287
142 123 109 158 126 140 221 197 215 204 197 255 99 225 35 87 54 60 73 70 69 96 125 146 144 166 193 192 209 224 232 246 246 246 243 257 248 272 275 276 284 295 295 294
179 162 169 162 316 210 205 280 274 291 295 85 162 235 93 101 100 105 97 88 86 85 93 113 130 169 187 212 227 232 245 245 253 267 258 255 254 261 285 289 293 293 293 295
198 102 113 48 344 326 140 224 8 283 250 269 247 119 134 133 118 116 101 94 87 86 86 89 83 73 74 62 43 353 302 287 303 254 252 247 250 246 270 289 289 293 295 297
40 116 28 119 191 82 318 25 198 201 259 252 177 236 120 172 149 134 121 106 99 95 91 86 79 71 66 64 55 48 27 6 242 261 270 297 290 292 290 288 295 302 300 295
306 277 123 182 207 164 170 207 235 307 289 302 295 94 51 157 151 143 121 111 109 99 92 86 82 79 71 53 32 4 324 280 261 277 300 287 292 304 307 300 296 293 297 296
38 308 159 129 88 347 310 280 246 251 168 245 296 323 103 106 135 148 136 137 120 113 107 95 92 61 26 7 352 339 321 301 286 292 291 294 303 297 299 299 303 302 300 300
103 221 161 165 174 176 229 204 244 282 295 266 277 90 109 132 160 169 168 165 159 146 126 89 11 12 1 348 335 323 309 290 303 301 300 301 304 303 303 304 303 304 303 302
292 286 306 8 55 80 186 203 216 228 242 263 234 258 178 180 192 188 188 186 174 159 159 5 355 343 340 334 325 326 313 312 304 291 297 299 299 307 306 306 306 305 304 302
282 248 272 48 22 326 303 224 211 228 248 275 297 304 325 236 215 216 197 196 198 211 265 359 345 340 338 334 332 324 331 318 300 298 296 301 311 308 306 308 306 305 303 301
195 113 294 240 226 277 271 256 247 241 254 267 280 282 324 320 161 182 199 202 232 257 6 348 341 334 334 331 328 325 301 297 300 295 307 313 309 308 309 308 307 305 303 301
191 166 224 191 69 286 261 246 230 236 243 255 257 25 103 131 183 200 197 210 259 353 341 340 336 334 328 325 323 307 316 314 311 313 310 309 312 313 312 310 307 307 305 304
177 200 262 312 268 244 74 49 0 212 259 226 228 187 219 209 205 204 206 272 43 3 341 333 329 326 324 318 303 307 310 309 306 309 309 314 316 313 310 309 308 306 307 309
338 215 191 254 238 311 159 184 182 206 311 220 232 191 195 169 216 220 116 73 29 353 337 328 328 323 319 306 303 303 304 305 308 308 314 319 315 310 310 308 307 308 315 311
218 273 251 162 257 253 70 140 163 187 246 146 184 193 186 175 247 97 106 35 12 351 332 326 324 315 303 304 309 302 301 307 307 320 318 311 311 307 308 309 310 306 310 302
173 197 223 217 241 271 118 145 171 232 62 147 188 189 188 211 31 92 61 30 4 341 335 333 314 314 309 305 305 301 303 305 324 318 312 310 306 308 310 307 311 318 305 303
186 174 203 212 213 244 144 138 226 79 103 146 179 158 182 111 99 76 36 357 346 338 334 326 316 312 312 309 301 299 304 318 322 314 307 305 310 313 308 315 320 314 305 305
229 249 310 205 238 103 185 44 87 94 158 185 177 143 145 143 130 112 307 328 335 334 330 329 324 314 303 301 308 301 308 318 315 307 306 314 315 311 319 331 319 310 315 307
228 147 240 337 174 216 207 211 185 196 226 154 163 147 161 160 170 277 315 323 323 326 323 322 320 317 315 315 309 304 310 314 310 307 314 316 313 323 328 327 308 313 309 307
21 151 229 251 262 208 238 238 212 198 190 151 146 151 154 156 183 287 312 320 316 313 310 315 313 315 315 312 304 306 313 313 309 312 313 316 319 331 326 309 304 310 305 304
186 219 205 252 357 221 76 194 190 177 173 164 156 159 166 193 260 287 293 306 308 309 314 309 306 311 317 318 313 312 315 314 312 310 314 319 326 329 304 305 310 320 315 314